Location: Unspecified
(0.0000°N, 0.0000°E)
Time: 19:03:30
(UTC+00:00)

A-11 Canister half - Pass Details

Date: 26 November 2019
Orbit: 1526 x 1683 km, 47.3° (Epoch: 08 December)

Event Time Altitude Azimuth Distance (km) Brightness Sun altitude
Rises 20:39:37 0° 283° (WNW) 4,684 12.1 -39.6°
Reaches altitude 10° 20:44:06 10° 264° (W) 3,692 11.6 -40.6°
Maximum altitude 20:49:40 17° 226° (SW) 3,147 11.1 -41.8°
Drops below altitude 10° 20:55:18 10° 188° (S) 3,699 11.3 -43.0°
Sets 20:59:52 0° 169° (S) 4,697 11.7 -44.0°
